Location: Banska Bystrica
(0.0000°N, 19.1500°E)
Time: 09:09:17
(UTC+02:00)

Daily predictions for brighter satellites

Satellite Brightness Start Highest point End
(mag) Time Altitude Azimuth Time Altitude Azimuth Time Altitude Azimuth
Ariane H10 2.1 19:05:45 10° WSW 19:07:54 36° S 19:11:35 10° ESE
Cosmos 2333 4.3 19:02:23 10° SSW 19:08:02 89° WNW 19:13:43 10° NNE
ATLAS 2AS CENTAUR R/B 2.7 19:05:04 10° NNW 19:12:03 68° ENE 19:18:24 10° SSE
Hubble Space Telescope 2.4 19:11:06 10° NNW 19:14:20 22° NNE 19:17:34 10° E
Cosmos 1862 Rocket 3.7 19:11:42 10° N 19:15:55 53° E 19:20:10 10° SSE
NOSS 0 Rocket 4.5 19:11:12 10° S 19:16:52 37° ESE 19:22:31 10° NE
Cosmos 1184 Rocket 3.5 19:16:41 10° NNE 19:19:41 33° E 19:22:41 10° SSE
Cosmos 2150 Rocket 4.1 19:16:46 10° SSW 19:22:03 84° W 19:27:14 10° N
SJ 16-02 1.4 19:22:59 10° S 19:27:19 57° ESE 19:31:37 10° NNE
Cosmos 2263 Rocket 2.8 19:23:19 10° NNE 19:28:18 33° ENE 19:33:17 10° SE
Cosmos 2237 Rocket 2.9 19:24:09 10° SSE 19:29:08 31° ESE 19:34:06 10° NE
ARIANE 3 DEB 4.0 19:27:28 10° W 19:31:09 56° N 19:39:30 10° ENE
GPS 2-17 Rocket1 4.0 19:27:22 10° W 19:31:22 34° SSW 19:35:00 12° SE
Cosmos 1980 4.1 19:28:52 10° S 19:34:06 39° ESE 19:39:19 10° NE
Ariane H10-3 3.3 19:32:38 10° W 19:36:21 78° N 19:55:09 11° E
Centaur D-1AR AC-48 4.5 19:30:25 10° SW 19:36:53 47° SE 20:37:48 10° ENE
Cosmos 1606 3.4 19:33:39 10° NNW 19:37:22 56° W 19:41:05 10° S
Cosmos 372 Rocket 3.9 19:38:08 10° S 19:43:08 58° ESE 19:48:07 10° NNE
CZ-4 R/B 3.9 19:43:44 10° SSW 19:46:58 23° WSW 19:50:14 10° NW
Cosmos 2366 rocket 4.3 19:42:54 10° N 19:49:13 75° W 19:55:33 10° S
Ariane Rocket 4.4 19:46:33 10° S 19:51:15 38° WSW 19:55:55 10° NW
NOSS 3-4 (A) 4.3 19:45:21 10° N 19:52:39 46° ENE 19:58:03 19° SE
NOSS 3-4 (C) 4.3 19:45:28 10° N 19:52:45 46° ENE 19:58:06 20° SE
H-2A R/B 3.8 19:50:44 10° S 19:54:17 44° W 19:57:51 10° NNW
Meteor 2-6 Rocket 4.3 19:49:30 10° N 19:55:27 84° E 20:01:17 10° S
Geosat 4.0 19:52:41 17° SE 19:56:30 57° ENE 20:01:24 10° N
Cosmos 2219 Rocket 3.4 19:52:04 10° SW 19:57:19 43° WNW 20:02:35 10° N
TELKOM 3 4.2 19:57:30 10° SW 19:59:35 37° NW 20:00:03 31° NNW
Cosmos 1633 2.4 19:56:27 10° S 20:00:05 87° E 20:03:41 10° N
ARIANE 5 DEB (SYLDA) 3.3 19:58:50 10° WSW 19:59:11 14° WSW 19:59:11 14° WSW
Cosmos 1125 Rocket 3.3 19:56:06 10° S 20:01:18 78° ESE 20:06:29 10° NNE
GPS 2-04 Rocket1 3.6 19:59:14 10° SSW 20:01:21 25° S 20:01:21 25° S
Cosmos 2084 4.2 19:58:45 10° SSW 20:03:25 60° WNW 20:07:54 10° NNE
Cosmos 1733 Rocket 3.0 20:03:44 10° S 20:08:07 61° E 20:12:30 10° NNE
GPS 2-12 Rocket1 3.8 20:06:08 10° W 20:10:32 47° NNW 20:12:53 25° NE
Centaur D-1A AC-31 2.6 20:07:06 10° W 20:10:49 47° SSW 20:16:17 23° SE
SWIFT 4.2 20:07:49 10° WSW 20:10:53 19° SSW 20:11:54 18° S
Meteor 1-14 Rocket 4.2 20:08:35 10° S 20:14:33 72° E 20:20:27 10° N
Ariane H10+ 4.2 19:34:18 10° W 20:14:46 78° N 20:21:03 31° E
Ariane 42P Rocket 3.0 20:15:02 10° WNW 20:16:32 31° NNW 20:16:32 31° NNW
Cosmos 1680 Rocket 3.5 20:11:56 10° NNW 20:17:09 79° WSW 20:20:48 20° S
ARIANE 5 R/B 3.9 20:14:50 10° WNW 20:18:58 58° NNE 20:28:16 25° E
ARIANE 5 R/B 3.9 20:14:49 10° WNW 20:18:59 58° NNE 20:28:15 25° E
ARIANE 5 R/B 3.9 20:14:50 10° WNW 20:18:59 58° NNE 20:28:17 25° E
Okean 1-7 2.9 20:19:15 10° N 20:23:32 88° W 20:24:17 60° S
Meteor 1-25 Rocket 4.3 20:23:40 10° S 20:29:20 76° W 20:35:05 10° N
Cosmos 1821 Rocket 3.8 20:25:20 10° N 20:31:26 76° E 20:33:39 42° SSE
Meteor 2-17 Rocket 4.3 20:25:57 10° N 20:31:58 68° E 20:33:01 57° SE
Lacrosse 5 rocket 3.4 20:30:09 10° N 20:31:58 21° NNE 20:31:58 21° NNE
SPOT 3 Rocket 4.5 20:34:54 13° S 20:39:22 46° WSW 20:44:19 10° NNW
Ariane H10-3 3.9 12:57:25 10° W 20:40:07 75° S 20:42:29 52° ESE
GPS 2-15 Rocket1 4.4 20:39:38 10° W 20:43:07 32° SW 20:43:07 32° SW
ISS -0.9 20:44:25 10° NW 20:45:17 17° NW 20:45:17 17° NW
Hubble Space Telescope 2.8 20:51:27 10° WNW 20:53:30 27° W 20:53:30 27° W
Envisat 4.4 20:53:52 22° SSW 20:56:18 34° WSW 21:00:51 10° NW
H-2A R/B 4.2 21:37:13 10° WSW 21:44:06 79° NNW 22:42:52 10° NE
